Location: Bacharowice
(49.9333°N, 19.5833°E)
Time: 14:05:14
(UTC+00:00)

SOZ - Pass Details

Date: 06 October 2021
Orbit: 306 x 16685 km, 52.1° (Epoch: 27 October)

Event Time Altitude Azimuth Distance (km) Brightness Sun altitude
Rises 19:38:30 0° 148° (SSE) 21,959 12.9 -32.9°
Enters shadow 20:00:17 - 144° (SE) 20,386 12.7 -35.6°
Exits shadow 21:03:32 22° 116° (ESE) 11,345 11.5 -42.0°
Maximum altitude 21:05:51 22° 113° (ESE) 10,901 11.4 -42.2°
Drops below altitude 10° 21:26:06 10° 76° (ENE) 7,510 10.9 -43.6°
Sets 21:31:25 0° 62° (ENE) 7,154 11.0 -43.9°
